Location: Rounton
(54.4000°N, 1.3500°W)
Time: 07:57:04
(UTC+00:00)

Tiros 1 despin weight - Pass Details

Date: 01 December 2021
Orbit: 592 x 641 km, 48.2° (Epoch: 19 January)

Event Time Altitude Azimuth Distance (km) Brightness Sun altitude
Rises 14:33:26 0° 216° (SW) 2,822 ? 6.4°
Reaches altitude 10° 14:36:11 10° 199° (SSW) 1,919 ? 6.2°
Maximum altitude 14:39:23 20° 153° (SSE) 1,389 ? 5.9°
Drops below altitude 10° 14:42:34 10° 106° (ESE) 1,923 ? 5.6°
Sets 14:45:20 0° 89° (E) 2,829 ? 5.4°
